FENGYUN 3C

Last updated on Thu Oct 30 2025 00:02:23 GMT+0000 (Coordinated Universal Time)

1 39260U 13052A 25302.50084639 .00000168 00000+0 10664-3 0 9992 2 39260 98.4718 282.3501 0014172 331.8073 28.2333 14.15674943625929
UTC large
Height (km)
Speed (km/s)
/
Latitude / Longitude
Inclination (degrees)
Orbital Period (minutes)
Azimuth
Elevation
Range (km)
Doppler Factor

Next 0 passes for location: London (51.5072 / 0.1276)

Sorry there are no passes over London.